Weather History for Kimball, NE

Change the Weather History Date:

Saturday, April 6, 2013

  Actual Average (KSNY) Record (KSNY)
Temperature  
Mean Temperature 50 °F 44 °F  
Max Temperature 64 °F 59 °F 83 °F (1959)
Min Temperature 37 °F 30 °F 8 °F (1983)
Degree Days  
Heating Degree Days 14 21  
Month to date heating degree days 129  
Since 1 July heating degree days 5514  
Cooling Degree Days 0 0  
Month to date cooling degree days 0  
Year to date cooling degree days 0  
Moisture  
Dew Point 26 °F    
Average Humidity 41    
Maximum Humidity 83    
Minimum Humidity 16    
Precipitation  
Precipitation 0.00 in 0.06 in 0.74 in (1953)
Month to date precipitation 0.29  
Year to date precipitation 1.91  
Sea Level Pressure  
Sea Level Pressure 29.86 in    
Wind  
Wind Speed 14 mph (WNW)    
Max Wind Speed 23 mph    
Max Gust Speed 33 mph    
Visibility 10 miles    
Events      
T = Trace of Precipitation, MM = Missing Value Source: NWS Daily Summary

Daily Weather History Graph

Daily Weather History Graph

Search for Another Location

Airport:

Trip Planner

Search our weather history database for the weather conditions in past years. The results will help you decide how hot, cold, wet, or windy it might be!

Date:

Astronomy

Apr. 06, 2013 Rise Set
Actual Time 7:29 AM CDT 8:25 PM CDT
Civil Twilight 7:01 AM CDT 8:53 PM CDT
Nautical Twilight 6:27 AM CDT 9:27 PM CDT
Astronomical Twilight 5:53 AM CDT 10:01 PM CDT
Moon 5:16 AM CDT (4/6) 4:54 PM CDT (4/6)
Length of Visible Light 13h 52m
Length of Day
12h 56m
Waning Crescent, 15% of the Moon is Illuminated
Apr 6
Waning Crescent
Apr 10
New
Apr 18
First Quarter
Apr 25
Full
May 2
Last Quarter

Hourly Weather History & Observations

Time (CDT) Temp. Windchill Dew Point Humidity Pressure Visibility Wind Dir Wind Speed Gust Speed Precip Events Conditions
12:15 AM 53.1 °F - 31.1 °F 43% 29.79 in 10.0 mi WNW 17.3 mph 23.0 mph N/A   Clear
12:35 AM 53.1 °F - 29.8 °F 41% 29.80 in 10.0 mi WNW 20.7 mph 28.8 mph N/A   Clear
12:55 AM 53.4 °F - 28.8 °F 39% 29.80 in 10.0 mi WNW 23.0 mph 27.6 mph N/A   Clear
1:15 AM 52.7 °F - 28.9 °F 40% 29.81 in 10.0 mi NW 17.3 mph 23.0 mph N/A   Clear
1:35 AM 49.3 °F - 37.9 °F 65% 29.83 in 10.0 mi NNW 16.1 mph 28.8 mph N/A   Clear
1:55 AM 46.8 °F - 38.8 °F 74% 29.84 in 10.0 mi North 16.1 mph - N/A   Clear
2:15 AM 45.1 °F 41.4 °F 38.5 °F 77% 29.84 in 10.0 mi NNW 6.9 mph - N/A   Clear
2:35 AM 44.1 °F 39.5 °F 37.6 °F 78% 29.84 in 10.0 mi NW 8.1 mph - N/A   Clear
2:55 AM 43.2 °F 37.4 °F 37.4 °F 80% 29.84 in 10.0 mi NW 10.4 mph - N/A   Clear
3:15 AM 44.2 °F 38.0 °F 37.4 °F 77% 29.84 in 10.0 mi NW 12.7 mph 19.6 mph N/A   Clear
3:35 AM 43.7 °F 39.1 °F 36.9 °F 77% 29.85 in 10.0 mi NW 8.1 mph - N/A   Clear
3:55 AM 41.7 °F 35.6 °F 36.0 °F 80% 29.85 in 10.0 mi WNW 10.4 mph - N/A   Clear
4:15 AM 41.4 °F 35.7 °F 35.6 °F 80% 29.85 in 10.0 mi West 9.2 mph - N/A   Clear
4:35 AM 41.0 °F 34.7 °F 35.1 °F 79% 29.85 in 10.0 mi WNW 10.4 mph - N/A   Clear
4:55 AM 39.0 °F 33.4 °F 33.8 °F 82% 29.86 in 10.0 mi West 8.1 mph - N/A   Clear
5:15 AM 38.8 °F 32.1 °F 34.0 °F 83% 29.87 in 10.0 mi WNW 10.4 mph - N/A   Clear
5:35 AM 38.3 °F 31.4 °F 32.5 °F 80% 29.87 in 10.0 mi West 10.4 mph - N/A   Clear
5:55 AM 37.4 °F 29.3 °F 29.5 °F 73% 29.87 in 10.0 mi WNW 12.7 mph - N/A   Clear
6:15 AM 37.8 °F 29.0 °F 27.5 °F 67% 29.87 in 10.0 mi WNW 15.0 mph - N/A   Clear
6:35 AM 38.8 °F 31.2 °F 27.0 °F 62% 29.87 in 10.0 mi WNW 12.7 mph - N/A   Clear
6:55 AM 38.8 °F 31.2 °F 25.7 °F 59% 29.87 in 10.0 mi West 12.7 mph - N/A   Clear
7:15 AM 37.6 °F 30.5 °F 25.5 °F 62% 29.87 in 10.0 mi West 10.4 mph - N/A   Clear
7:35 AM 39.0 °F 31.4 °F 25.5 °F 58% 29.88 in 10.0 mi West 12.7 mph - N/A   Clear
7:55 AM 40.5 °F 32.5 °F 25.5 °F 55% 29.89 in 10.0 mi West 15.0 mph - N/A   Clear
8:15 AM 42.3 °F 34.8 °F 25.7 °F 52% 29.89 in 10.0 mi WNW 15.0 mph 20.7 mph N/A   Clear
8:35 AM 44.1 °F 36.2 °F 25.7 °F 49% 29.89 in 10.0 mi WNW 18.4 mph - N/A   Clear
8:55 AM 45.5 °F 38.9 °F 25.9 °F 46% 29.89 in 10.0 mi WNW 15.0 mph - N/A   Clear
9:15 AM 48.0 °F - 25.7 °F 42% 29.90 in 10.0 mi WNW 16.1 mph 24.2 mph N/A   Clear
9:35 AM 51.3 °F - 24.8 °F 36% 29.89 in 10.0 mi NW 17.3 mph 23.0 mph N/A   Clear
9:55 AM 53.1 °F - 24.1 °F 32% 29.89 in 10.0 mi NW 18.4 mph 23.0 mph N/A   Clear
10:15 AM 54.7 °F - 23.9 °F 30% 29.89 in 10.0 mi NW 18.4 mph 26.5 mph N/A   Clear
10:35 AM 55.6 °F - 23.9 °F 29% 29.88 in 10.0 mi NNW 19.6 mph 26.5 mph N/A   Clear
10:55 AM 56.8 °F - 24.4 °F 29% 29.89 in 10.0 mi NW 17.3 mph 28.8 mph N/A   Clear
11:15 AM 56.7 °F - 24.3 °F 29% 29.89 in 10.0 mi North 12.7 mph 23.0 mph N/A   Clear
11:35 AM 57.6 °F - 24.4 °F 28% 29.89 in 10.0 mi NNW 11.5 mph 19.6 mph N/A   Clear
11:55 AM 58.8 °F - 24.1 °F 26% 29.89 in 10.0 mi NNW 10.4 mph - N/A   Clear
12:15 PM 60.3 °F - 23.0 °F 24% 29.89 in 10.0 mi NNW 15.0 mph 19.6 mph N/A   Clear
12:35 PM 59.0 °F - 22.8 °F 25% 29.89 in 10.0 mi NNW 9.2 mph 19.6 mph N/A   Scattered Clouds
12:55 PM 60.6 °F - 22.6 °F 23% 29.89 in 10.0 mi NNW 15.0 mph 18.4 mph N/A   Scattered Clouds
1:15 PM 62.8 °F - 21.0 °F 20% 29.88 in 10.0 mi NW 9.2 mph 24.2 mph N/A   Scattered Clouds
1:35 PM 62.6 °F - 19.0 °F 19% 29.88 in 10.0 mi WNW 20.7 mph 26.5 mph N/A   Scattered Clouds
1:55 PM 64.6 °F - 19.9 °F 18% 29.87 in 10.0 mi NW 13.8 mph 24.2 mph N/A   Clear
2:15 PM 64.4 °F - 16.3 °F 16% 29.87 in 10.0 mi West 19.6 mph 29.9 mph N/A   Clear
2:35 PM 63.5 °F - 16.7 °F 16% 29.86 in 10.0 mi WNW 15.0 mph 23.0 mph N/A   Clear
2:55 PM 62.8 °F - 18.1 °F 18% 29.86 in 10.0 mi WNW 12.7 mph 20.7 mph N/A   Clear
3:15 PM 63.3 °F - 19.4 °F 18% 29.86 in 10.0 mi West 20.7 mph 31.1 mph N/A   Clear
3:35 PM 63.5 °F - 18.1 °F 17% 29.85 in 10.0 mi West 20.7 mph 31.1 mph N/A   Clear
3:55 PM 63.7 °F - 17.4 °F 17% 29.85 in 10.0 mi WNW 20.7 mph 28.8 mph N/A   Clear
4:15 PM 63.9 °F - 18.3 °F 17% 29.85 in 10.0 mi West 20.7 mph 33.4 mph N/A   Scattered Clouds
4:35 PM 64.9 °F - 17.1 °F 16% 29.85 in 10.0 mi WNW 23.0 mph 29.9 mph N/A   Scattered Clouds
4:55 PM 63.9 °F - 18.3 °F 17% 29.85 in 10.0 mi WNW 21.9 mph 27.6 mph N/A   Clear
5:15 PM 63.9 °F - 18.3 °F 17% 29.84 in 10.0 mi West 15.0 mph 27.6 mph N/A   Scattered Clouds
5:35 PM 62.6 °F - 18.3 °F 18% 29.83 in 10.0 mi WNW 15.0 mph 21.9 mph N/A   Scattered Clouds
5:55 PM 61.9 °F - 23.0 °F 23% 29.85 in 10.0 mi NW 18.4 mph 28.8 mph N/A   Mostly Cloudy
6:15 PM 61.2 °F - 22.6 °F 23% 29.84 in 10.0 mi WNW 8.1 mph - N/A   Mostly Cloudy
6:35 PM 64.2 °F - 22.1 °F 20% 29.83 in 10.0 mi West 23.0 mph 29.9 mph N/A   Overcast
6:55 PM 63.0 °F - 22.3 °F 21% 29.84 in 10.0 mi West 19.6 mph 28.8 mph N/A   Scattered Clouds
7:15 PM 60.8 °F - 23.2 °F 24% 29.84 in 10.0 mi West 10.4 mph - N/A   Scattered Clouds
7:35 PM 60.3 °F - 23.7 °F 25% 29.85 in 10.0 mi WNW 9.2 mph 19.6 mph N/A   Mostly Cloudy
7:55 PM 59.7 °F - 23.9 °F 25% 29.84 in 10.0 mi West 9.2 mph - N/A   Overcast
8:15 PM 58.8 °F - 23.7 °F 26% 29.85 in 10.0 mi West 5.8 mph - N/A   Overcast
8:35 PM 57.9 °F - 25.9 °F 29% 29.85 in 10.0 mi NNW 11.5 mph 15.0 mph N/A   Overcast
8:55 PM 57.0 °F - 26.1 °F 30% 29.85 in 10.0 mi NW 8.1 mph - N/A   Overcast
9:15 PM 55.4 °F - 26.4 °F 33% 29.86 in 10.0 mi West 5.8 mph - N/A   Overcast
9:35 PM 53.1 °F - 26.2 °F 35% 29.86 in 10.0 mi West 4.6 mph - N/A   Overcast
9:55 PM 50.2 °F - 26.2 °F 39% 29.86 in 10.0 mi Calm Calm - N/A   Mostly Cloudy
10:15 PM 49.3 °F - 26.6 °F 41% 29.86 in 10.0 mi SSW 3.5 mph - N/A   Mostly Cloudy
10:35 PM 50.9 °F - 26.6 °F 39% 29.87 in 10.0 mi West 5.8 mph - N/A   Mostly Cloudy
10:55 PM 50.5 °F - 26.2 °F 39% 29.87 in 10.0 mi WSW 6.9 mph - N/A   Mostly Cloudy
11:15 PM 49.6 °F - 26.4 °F 41% 29.87 in 10.0 mi WSW 5.8 mph - N/A   Mostly Cloudy
11:35 PM 49.1 °F - 27.1 °F 43% 29.87 in 10.0 mi West 6.9 mph - N/A   Overcast
11:55 PM 49.5 °F - 27.5 °F 43% 29.86 in 10.0 mi WSW 5.8 mph - N/A   Overcast